Date String (YYYY-MM-DD hh:mm:ss) UTC,Instrument flags,absolute air pressure of the measurement (hPa),sample flow rate (lpm),inlet stack bypass flow (lpm),air temperature of the measurement (°C),ambient temperature measured by the external sensor (°C),aerosol sample conditioner tube jacket temperature (°C),OPC LED temperature (°C),internal box temperature (°C),relative humidity of the measurement (%),span deviation,mass concentration of particles derived from Lorenz-Mie calculation of OPC scattering (μg/m³),mass concentration of particles derived from Lorenz-Mie calculation of OPC scattering (μg/m³),mass concentration of particles derived from Lorenz-Mie calculation of OPC scattering (μg/m³)
DateTimeUTC,F1_M11,P_M11,Q1_M11,Q2_M11,T1_M11,T2_M11,T3_M11,T4_M11,T5_M11,U1_M11,ZSPAN_M11,X2_M11,X0_M11,X1_M11
2024-04-20 13:00:00,SystemResetWarning,0835.6,4.99,000.00,018.9,018.4,000.0,027.4,020.7,023.2,0001.0,0008.40,0009.57,0008.25
2024-04-20 13:01:00,SystemResetWarning,0835.6,5.00,000.00,018.9,018.4,000.0,027.4,020.7,023.2,0000.8,0008.43,0009.62,0008.27
2024-04-20 13:02:00,SystemResetWarning,0835.6,5.01,000.00,018.9,018.4,000.0,027.4,020.7,023.3,0000.8,0008.43,0009.59,0008.29
2024-04-20 13:03:00,SystemResetWarning,0835.6,5.01,000.00,018.9,018.4,000.0,027.4,020.7,023.3,0000.9,0008.45,0009.59,0008.31
2024-04-20 13:04:00,SystemResetWarning,0835.5,4.99,000.00,018.9,018.4,000.0,027.4,020.7,023.3,0000.8,0008.48,0009.66,0008.33
2024-04-20 13:05:00,SystemResetWarning,0835.6,4.99,000.00,018.9,018.4,000.0,027.4,020.7,023.3,0000.3,0008.47,0009.65,0008.32
2024-04-20 13:06:00,SystemResetWarning,0835.6,5.00,000.00,018.9,018.4,000.0,027.4,020.7,023.3,0000.2,0008.47,0009.67,0008.32
2024-04-20 13:07:00,SystemResetWarning,0835.6,5.00,000.00,018.9,018.4,000.0,027.4,020.7,023.3,0000.2,0008.47,0009.67,0008.32
2024-04-20 13:08:00,SystemResetWarning,0835.6,5.00,000.00,018.9,018.4,000.0,027.4,020.7,023.3,0000.5,0008.45,0009.64,0008.30
2024-04-20 13:09:00,SystemResetWarning,0835.6,5.00,000.00,018.9,018.4,000.0,027.4,020.7,023.3,0000.5,0008.43,0009.63,0008.27
2024-04-20 13:10:00,SystemResetWarning,0835.6,5.01,000.00,018.9,018.4,000.0,027.4,020.7,023.3,0000.6,0008.41,0009.62,0008.25
2024-04-20 13:11:00,SystemResetWarning,0835.6,5.01,000.00,018.9,018.4,000.0,027.4,020.7,023.3,0000.4,0008.40,0009.61,0008.24
2024-04-20 13:12:00,SystemResetWarning,0835.6,5.01,000.00,018.9,018.4,000.0,027.4,020.7,023.5,0000.6,0008.39,0009.58,0008.22
2024-04-20 13:13:00,SystemResetWarning,0835.6,5.00,000.00,018.9,018.4,000.0,027.4,020.7,024.4,0000.9,0008.38,0009.58,0008.21
2024-04-20 13:14:00,SystemResetWarning,0835.8,5.00,000.00,018.9,018.4,000.0,027.4,020.7,024.3,0000.8,0008.37,0009.55,0008.20
2024-04-20 13:15:00,SystemResetWarning,0835.6,5.00,000.00,018.9,018.4,000.0,027.4,020.7,023.8,0000.8,0008.30,0009.45,0008.15
2024-04-20 13:16:00,SystemResetWarning,0835.6,5.00,000.00,018.9,018.4,000.0,027.4,020.7,023.7,0000.9,0008.26,0009.45,0008.12
2024-04-20 13:17:00,SystemResetWarning,0835.6,5.00,000.00,018.9,018.4,000.0,027.4,020.7,023.7,0000.8,0008.23,0009.39,0008.10
2024-04-20 13:18:00,SystemResetWarning,0835.7,5.00,000.00,018.9,018.4,000.0,027.4,020.7,023.7,0000.5,0008.19,0009.32,0008.08
2024-04-20 13:19:00,SystemResetWarning,0835.6,4.98,000.00,018.9,018.4,000.0,027.4,020.7,023.7,0000.0,0008.14,0009.29,0008.04
2024-04-20 13:20:00,SystemResetWarning,0835.6,4.99,000.00,018.9,018.4,000.0,027.4,020.7,023.7,0000.0,0008.12,0009.28,0008.02
2024-04-20 13:21:00,SystemResetWarning,0835.7,5.00,000.00,018.9,018.4,000.0,027.4,020.7,023.7,0000.0,0008.11,0009.23,0008.01
2024-04-20 13:22:00,SystemResetWarning,0835.7,5.01,000.00,018.9,018.4,000.0,027.4,020.7,023.7,0000.0,0008.11,0009.24,0008.01
2024-04-20 13:23:00,SystemResetWarning,0835.6,5.01,000.00,018.9,018.4,000.0,027.4,020.7,023.7,-000.0,0008.12,0009.25,0008.02
2024-04-20 13:24:00,SystemResetWarning,0835.7,5.00,000.00,018.9,018.4,000.0,027.4,020.7,023.8,0000.0,0008.13,0009.29,0008.03
2024-04-20 13:25:00,SystemResetWarning,0835.6,5.00,000.00,018.9,018.4,000.0,027.4,020.7,023.8,-000.6,0008.17,0009.35,0008.06
2024-04-20 13:26:00,SystemResetWarning,0835.6,5.00,000.00,019.0,018.4,000.0,027.4,020.7,023.8,-000.7,0008.20,0009.38,0008.08
2024-04-20 13:27:00,SystemResetWarning,0835.6,4.99,000.00,019.0,018.4,000.0,027.4,020.7,023.7,-000.8,0008.23,0009.35,0008.12
2024-04-20 13:28:00,SystemResetWarning,0835.6,5.00,000.00,019.0,018.4,000.0,027.4,020.7,023.7,-001.1,0008.26,0009.37,0008.15
2024-04-20 13:29:00,SystemResetWarning,0835.8,5.00,000.00,019.0,018.4,000.0,027.4,020.7,023.7,-001.2,0008.30,0009.41,0008.19
2024-04-20 13:30:00,SystemResetWarning,0835.7,5.00,000.00,019.0,018.4,000.0,027.4,020.7,023.8,-001.3,0008.35,0009.46,0008.23
2024-04-20 13:31:00,SystemResetWarning,0835.7,5.00,000.00,019.0,018.5,000.0,027.4,020.7,023.8,-000.8,0008.39,0009.51,0008.27
2024-04-20 13:32:00,SystemResetWarning,0835.7,5.00,000.00,019.0,018.5,000.0,027.4,020.7,023.8,-000.9,0008.43,0009.59,0008.29
2024-04-20 13:33:00,SystemResetWarning,0835.7,5.00,000.00,019.0,018.5,000.0,027.4,020.7,023.8,-000.4,0008.42,0009.60,0008.28
2024-04-20 13:34:00,SystemResetWarning,0835.7,5.00,000.00,019.0,018.5,000.0,027.4,020.7,023.9,0000.5,0008.40,0009.58,0008.26
2024-04-20 13:35:00,SystemResetWarning,0835.7,5.00,000.00,019.0,018.5,000.0,027.4,020.7,023.9,0001.0,0008.37,0009.58,0008.24
2024-04-20 13:36:00,SystemResetWarning,0835.7,5.01,000.00,019.0,018.5,000.0,027.4,020.7,023.9,0000.8,0008.32,0009.52,0008.21
2024-04-20 13:37:00,SystemResetWarning,0835.6,5.00,000.00,019.0,018.5,000.0,027.4,020.7,024.0,0000.4,0008.31,0009.51,0008.20
2024-04-20 13:38:00,SystemResetWarning,0835.7,4.99,000.00,019.0,018.5,000.0,027.4,020.7,024.0,0000.5,0008.30,0009.51,0008.17
2024-04-20 13:39:00,SystemResetWarning,0835.6,4.99,000.00,019.0,018.5,000.0,027.4,020.7,024.1,0001.0,0008.27,0009.50,0008.13
2024-04-20 13:40:00,SystemResetWarning,0835.6,5.01,000.00,019.0,018.5,000.0,027.4,020.7,024.1,0001.2,0008.23,0009.47,0008.08
2024-04-20 13:41:00,SystemResetWarning,0835.6,5.00,000.00,019.0,018.5,000.0,027.4,020.7,024.2,0001.5,0008.18,0009.42,0008.04
2024-04-20 13:42:00,SystemResetWarning,0835.6,5.00,000.00,019.0,018.5,000.0,027.4,020.7,024.2,0001.2,0008.14,0009.38,0007.99
2024-04-20 13:43:00,SystemResetWarning,0835.6,5.01,000.00,019.0,018.5,000.0,027.4,020.7,024.2,0001.6,0008.12,0009.40,0007.96
2024-04-20 13:44:00,SystemResetWarning,0835.6,4.99,000.00,019.0,018.5,000.0,027.4,020.7,024.3,0001.7,0008.11,0009.41,0007.94
2024-04-20 13:45:00,SystemResetWarning,0835.6,4.99,000.00,019.0,018.5,000.0,027.4,020.7,024.4,0000.5,0008.14,0009.44,0007.95
2024-04-20 13:46:00,SystemResetWarning,0835.6,5.00,000.00,019.0,018.5,000.0,027.5,020.7,024.4,-000.3,0008.12,0009.41,0007.93
2024-04-20 13:47:00,SystemResetWarning,0835.6,5.00,000.00,019.0,018.5,000.0,027.5,020.7,024.4,-000.1,0008.10,0009.37,0007.91
2024-04-20 13:48:00,SystemResetWarning,0835.6,5.01,000.00,019.0,018.5,000.0,027.5,020.7,024.5,0000.5,0008.10,0009.34,0007.90
2024-04-20 13:49:00,SystemResetWarning,0835.6,5.00,000.00,019.0,018.5,000.0,027.5,020.7,024.5,0000.1,0008.09,0009.33,0007.90
2024-04-20 13:50:00,SystemResetWarning,0835.6,5.01,000.00,019.0,018.5,000.0,027.5,020.7,024.6,0000.0,0008.08,0009.31,0007.91
2024-04-20 13:51:00,SystemResetWarning,0835.6,5.00,000.00,019.0,018.5,000.0,027.5,020.8,025.0,0000.0,0008.09,0009.32,0007.93
2024-04-20 13:52:00,SystemResetWarning,0835.6,4.99,000.00,019.0,018.5,000.0,027.5,020.8,025.5,0000.0,0008.10,0009.32,0007.93
2024-04-20 13:53:00,SystemResetWarning,0835.6,5.00,000.00,019.0,018.5,000.0,027.5,020.7,025.0,0000.0,0008.09,0009.31,0007.93
2024-04-20 13:54:00,SystemResetWarning,0835.6,4.99,000.00,019.0,018.5,000.0,027.5,020.8,024.8,0000.0,0008.08,0009.27,0007.93
2024-04-20 13:55:00,SystemResetWarning,0835.6,5.01,000.00,019.0,018.5,000.0,027.5,020.8,024.7,0000.0,0008.06,0009.24,0007.92
2024-04-20 13:56:00,SystemResetWarning,0835.6,5.01,000.00,019.0,018.5,000.0,027.5,020.8,024.7,0000.0,0008.02,0009.21,0007.89
2024-04-20 13:57:00,SystemResetWarning,0835.6,5.00,000.00,019.0,018.5,000.0,027.5,020.8,024.6,0000.0,0007.99,0009.16,0007.87
2024-04-20 13:58:00,SystemResetWarning,0835.6,5.01,000.00,019.0,018.5,000.0,027.5,020.8,024.5,0000.6,0007.97,0009.15,0007.85
2024-04-20 13:59:00,SystemResetWarning,0835.6,5.00,000.00,019.0,018.5,000.0,027.5,020.8,024.5,0001.5,0007.96,0009.16,0007.82
